Location: Ciochowice
(50.4289°N, 18.5217°E)
Time: 15:28:45
(UTC+01:00)

ISS - Pass Details

Date: 30 January 2019
Orbit: 403 x 411 km, 51.6° (Epoch: 20 February)

Event Time Altitude Azimuth Distance (km) Brightness Sun altitude
Rises 19:01:45 0° 277° (W) 2,339 1.5 -23.4°
Reaches altitude 10° 19:03:51 10° 279° (W) 1,479 0.1 -23.7°
Enters shadow 19:06:01 37° 290° (WNW) 657 -2.3 -24.0°
